New Bern, NC

11:16 AM EST on February 27, 2017 (GMT -0500)
Craven County Regional

Weather History for KEWN - June, 2014

Change the Weather History Date:

Monday, June 30, 2014

  Actual Average Record
Temperature  
Mean Temperature 77 °F 80 °F  
Max Temperature 90 °F 89 °F 103 °F (1959)
Min Temperature 64 °F 71 °F 57 °F (1964)
Degree Days  
Heating Degree Days 0 0  
Month to date heating degree days 0 0  
Since 1 June heating degree days 0 1  
Since 1 July heating degree days 2637 2702  
Cooling Degree Days 12 15  
Month to date cooling degree days 421 365  
Year to date cooling degree days 782 608  
Since 1 June cooling degree days 421 365  
Growing Degree Days 26 (Base 50)    
Moisture  
Dew Point 62 °F    
Average Humidity 56    
Maximum Humidity 93    
Minimum Humidity 18    
Precipitation  
Precipitation 0.00 in 0.17 in 5.10 in (1962)
Month to date precipitation 3.49 4.59  
Year to date precipitation 21.37 23.98  
Snow  
Snow 0.00 in - - ()
Month to date snowfall 0.0  
Since 1 July snowfall 14.0  
Snow Depth 0.00 in    
Sea Level Pressure  
Sea Level Pressure 30.08 in    
Wind  
Wind Speed 3 mph (SE)    
Max Wind Speed 9 mph    
Max Gust Speed 22 mph    
Visibility 10 miles    
Events      
T = Trace of Precipitation, MM = Missing Value Source: NWS Daily Summary

Daily Weather History Graph

Daily Weather History Graph

Search for Another Location

Airport or City:

Trip Planner

Search our weather history database for the weather conditions in past years. The results will help you decide how hot, cold, wet, or windy it might be!

Date:

Astronomy

Jun. 30, 2014 Rise Set
Actual Time 5:57 AM EDT 8:26 PM EDT
Civil Twilight 5:27 AM EDT 8:55 PM EDT
Nautical Twilight 4:50 AM EDT 9:32 PM EDT
Astronomical Twilight 4:10 AM EDT 10:12 PM EDT
Moon 9:00 AM EDT (6/30) 10:27 PM EDT (6/30)
Length of Visible Light 15h 28m
Length of Day
14h 29m
Waxing Crescent, 10% of the Moon is Illuminated
Jun 30
Waxing Crescent
Jul 5
First Quarter
Jul 12
Full
Jul 18
Last Quarter
Jul 26
New

Hourly Weather History & Observations

Time (EDT) Temp. Heat Index Dew Point Humidity Pressure Visibility Wind Dir Wind Speed Gust Speed Precip Events Conditions
12:54 AM 68.0 °F - 64.0 °F 87% 30.14 in 10.0 mi Calm Calm - N/A   Clear
1:54 AM 68.0 °F - 64.0 °F 87% 30.13 in 10.0 mi Calm Calm - N/A   Clear
2:54 AM 68.0 °F - 63.0 °F 84% 30.12 in 10.0 mi Calm Calm - N/A   Clear
3:54 AM 66.0 °F - 62.1 °F 87% 30.10 in 10.0 mi Calm Calm - N/A   Clear
4:54 AM 66.0 °F - 62.1 °F 87% 30.09 in 10.0 mi Calm Calm - N/A   Clear
5:43 AM 64.4 °F - 60.8 °F 88% 30.09 in 7.0 mi Calm Calm - N/A   Partly Cloudy
5:54 AM 64.0 °F - 61.0 °F 90% 30.09 in 10.0 mi Calm Calm - N/A   Clear
5:56 AM 64.4 °F - 60.8 °F 88% 30.09 in 10.0 mi Calm Calm - N/A   Partly Cloudy
6:54 AM 66.9 °F - 64.0 °F 90% 30.10 in 10.0 mi Calm Calm - N/A   Clear
7:54 AM 75.0 °F - 66.9 °F 76% 30.13 in 10.0 mi Calm Calm - N/A   Clear
8:54 AM 78.1 °F - 66.9 °F 68% 30.14 in 10.0 mi Calm Calm - N/A   Clear
9:54 AM 80.1 °F 81.5 °F 63.0 °F 56% 30.14 in 10.0 mi NE 3.5 mph - N/A   Clear
10:54 AM 82.0 °F 82.4 °F 60.1 °F 47% 30.14 in 10.0 mi Calm Calm - N/A   Clear
11:54 AM 84.0 °F 84.5 °F 62.1 °F 47% 30.12 in 10.0 mi Variable 4.6 mph - N/A   Clear
12:54 PM 86.0 °F 86.3 °F 62.1 °F 44% 30.09 in 10.0 mi East 6.9 mph - N/A   Clear
1:54 PM 87.1 °F 85.7 °F 55.9 °F 35% 30.06 in 10.0 mi SE 5.8 mph - N/A   Clear
2:54 PM 86.0 °F 85.7 °F 60.1 °F 41% 30.05 in 10.0 mi Variable 4.6 mph - N/A   Clear
3:54 PM 88.0 °F - 39.9 °F 18% 30.04 in 10.0 mi ESE 5.8 mph - N/A   Clear
4:54 PM 88.0 °F 85.7 °F 53.1 °F 30% 30.02 in 10.0 mi SSE 4.6 mph - N/A   Clear
5:54 PM 88.0 °F 86.9 °F 57.9 °F 36% 30.01 in 10.0 mi ESE 3.5 mph - N/A   Clear
6:54 PM 84.9 °F 87.1 °F 66.0 °F 53% 30.01 in 10.0 mi SE 6.9 mph - N/A   Clear
7:54 PM 82.9 °F 85.8 °F 68.0 °F 60% 30.01 in 10.0 mi SSE 4.6 mph - N/A   Clear
8:54 PM 79.0 °F - 64.9 °F 62% 30.02 in 10.0 mi SSE 4.6 mph - N/A   Clear
9:54 PM 75.9 °F - 64.9 °F 69% 30.04 in 10.0 mi South 3.5 mph - N/A   Clear
10:54 PM 75.0 °F - 66.0 °F 73% 30.03 in 10.0 mi SSE 3.5 mph - N/A   Clear
11:54 PM 73.0 °F - 66.0 °F 79% 30.02 in 10.0 mi Calm Calm - N/A   Clear